Simultaneous Nadir Overpasses (SNOs) Predictions

Prediction of SNOs between METOP-B and TERRA Satellite Orbit:

Table of predicted SNOs for the next 14.0 days since TLE Epoch: 5/18/2024
Index Date (METOP-B) Time (METOP-B) Lat,Lon (METOP-B) SZA (METOP-B ) Date (TERRA) Time (TERRA) Lat,Lon (TERRA) SZA (TERRA ) Distance(km) Time Diff (sec)
1 05/18/2024 06:39:49 80.20, 101.69 61.28 05/18/2024 06:40:35 80.20, 101.53 61.27 3.05 46
2 05/18/2024 07:30:27 -80.28, -90.08 118.60 05/18/2024 07:29:54 -80.28, -90.06 118.61 0.46 33
3 05/20/2024 22:00:38 -80.25, 52.05 119.19 05/20/2024 22:00:42 -80.25, 51.93 119.20 2.43 4
4 05/20/2024 22:50:08 81.40,-115.04 64.17 05/20/2024 22:48:55 81.86,-115.61 64.36 51.47 73
5 05/23/2024 12:30:53 -80.13,-166.86 119.91 05/23/2024 12:31:32 -80.14,-166.75 119.88 2.15 39
6 05/23/2024 13:21:29 80.25, 1.79 60.29 05/23/2024 13:20:49 80.26, 1.92 60.30 2.44 40
7 05/26/2024 03:01:16 -79.74, -28.15 120.98 05/26/2024 03:02:30 -79.68, -27.96 121.00 7.54 74
8 05/26/2024 03:51:41 80.20, 143.63 59.73 05/26/2024 03:51:36 80.20, 143.68 59.74 0.89 5
9 05/28/2024 18:21:52 80.16, -74.34 59.24 05/28/2024 18:22:21 80.16, -74.33 59.25 0.38 29
10 05/28/2024 19:12:28 -80.31, 94.62 120.52 05/28/2024 19:11:39 -80.31, 94.56 120.54 1.11 49
11 05/31/2024 08:52:04 80.08, 67.27 58.72 05/31/2024 08:53:06 80.08, 67.29 58.75 0.53 62



Historial Predications of SNOs between METOP-B and TERRA
